Wind_Speed
40 41 40 39 39 40 40 40 39 38 39 41 41 40 39 40 39 38 38 38 37 36 35 36 35 36 35 34 35 34 34 34 34 35 35 35 35 36 36 35 35 36 36 37
42 42 40 40 40 40 40 40 39 39 39 41 41 40 39 40 40 39 38 38 38 37 36 35 35 35 35 34 34 35 34 34 34 35 36 36 36 36 36 37 36 36 37 38
42 41 40 40 40 40 40 40 39 40 40 41 41 41 38 38 39 39 39 38 38 37 36 36 35 35 34 34 34 35 35 35 35 35 35 36 37 37 37 38 38 37 38 38
41 40 40 40 40 41 40 39 40 40 40 40 41 42 38 38 38 38 38 38 37 37 36 35 35 35 35 35 35 36 35 36 36 36 35 35 36 37 38 38 38 38 38 38
39 39 40 40 40 40 40 39 40 41 41 41 41 43 40 37 37 37 37 37 38 38 37 36 36 35 35 35 36 36 36 36 36 36 36 36 36 36 37 37 38 38 38 39
38 38 39 39 39 40 39 40 40 40 41 43 40 42 41 38 36 36 37 37 37 38 38 37 36 35 35 36 36 36 37 37 37 37 36 36 36 36 37 37 37 37 38 39
37 37 38 38 38 38 38 38 39 41 42 43 40 41 41 38 37 36 36 36 36 37 38 37 36 36 36 36 36 36 36 36 36 36 36 36 36 37 37 37 37 37 37 38
36 36 35 36 37 37 37 37 38 40 41 41 41 41 39 37 36 36 36 36 35 35 36 37 36 36 37 37 37 37 36 36 36 36 36 36 36 37 37 38 37 37 38 38
33 34 33 33 34 35 36 36 36 38 40 40 40 40 38 37 36 35 35 35 35 35 35 36 36 36 36 36 36 36 37 36 36 36 36 36 37 37 37 38 38 38 38 38
32 32 31 31 32 33 34 34 35 36 37 38 38 37 36 35 35 34 34 35 34 34 34 34 35 35 34 34 35 35 35 35 36 36 37 37 38 38 38 38 38 36 36 37
30 31 30 31 32 32 33 32 33 35 37 38 37 36 35 34 34 34 34 33 34 34 35 35 35 34 34 34 34 34 34 35 35 35 36 36 37 37 37 36 36 36 34 35
30 32 30 29 30 31 32 32 33 34 36 38 38 35 33 32 33 33 33 33 33 34 34 34 34 33 33 33 33 33 34 34 35 35 35 36 36 36 36 35 35 35 34 34
30 32 31 30 30 31 32 32 33 34 35 36 36 34 33 32 33 33 33 32 32 33 33 32 33 33 33 33 33 33 33 33 34 34 34 35 35 34 34 33 34 34 33 33
31 32 32 31 31 31 32 32 33 33 34 34 34 34 32 32 33 33 33 33 33 32 33 32 32 33 34 34 33 33 33 33 32 32 31 32 32 32 31 32 33 32 33 34
31 32 32 33 32 32 32 32 33 34 34 34 34 34 33 33 33 32 33 33 34 34 34 34 33 33 34 34 34 33 33 33 32 32 31 31 31 32 31 32 33 33 34 34
29 30 30 31 31 32 32 31 32 34 34 34 34 33 33 33 33 33 33 33 33 33 33 33 34 34 33 33 33 33 33 33 32 32 32 31 31 32 33 33 33 34 35 35
27 27 28 28 28 30 31 30 30 32 33 33 33 32 33 33 33 33 32 31 32 32 32 33 33 33 33 32 33 32 32 33 33 32 32 32 32 32 34 34 33 33 34 35
25 25 25 25 26 27 27 27 28 30 31 32 33 33 34 33 33 32 32 31 32 32 32 33 33 32 33 33 33 33 32 32 32 32 32 32 32 33 34 34 34 34 34 35
22 21 21 21 22 23 22 23 24 26 28 29 31 32 33 32 32 33 33 33 32 32 32 32 32 32 33 33 33 33 33 32 32 32 33 33 33 33 34 35 35 35 35 35
19 19 19 19 20 21 21 20 21 23 24 26 27 28 30 30 30 30 32 33 33 33 33 32 32 32 32 32 32 32 33 33 33 33 33 33 33 33 34 35 36 36 36 36
17 18 18 18 20 20 19 19 20 21 21 23 25 27 28 28 29 29 29 30 31 32 32 32 32 32 33 33 33 32 32 32 32 32 33 33 33 32 33 33 34 35 36 37
17 18 17 17 18 17 17 18 19 19 19 20 22 24 26 27 27 28 29 29 30 31 31 32 32 32 33 33 33 33 33 32 32 32 32 32 33 33 32 32 33 34 34 35
19 19 18 18 19 17 17 18 18 18 18 19 21 22 24 25 26 26 27 28 29 30 30 31 31 31 31 32 32 32 33 32 31 31 31 32 32 32 32 33 33 34 34 34
20 20 20 20 20 19 18 17 18 18 18 19 20 21 22 24 24 25 26 27 28 29 29 29 29 30 30 30 31 32 32 32 31 32 32 32 32 32 33 33 33 33 34 33
19 20 21 21 20 19 19 18 19 19 19 20 20 21 22 23 24 25 25 26 27 27 28 28 29 29 29 29 30 31 32 33 33 33 33 33 32 32 32 33 33 34 34 34
18 20 21 21 19 19 18 19 19 19 19 20 21 22 23 24 24 25 25 26 26 26 27 28 28 29 29 29 30 31 31 32 32 33 33 33 33 33 34 34 34 34 35 35
Wind_Direction
265 264 264 264 263 263 262 261 260 259 259 258 257 256 253 251 251 251 251 251 251 251 251 253 252 250 249 252 253 253 253 253 253 252 253 254 253 254 256 258 259 261 262 261
264 264 264 263 261 261 261 260 260 259 258 258 257 255 253 251 250 250 249 249 250 250 250 252 253 251 250 252 254 253 254 254 254 254 255 254 255 256 258 259 261 262 263 261
264 264 263 261 260 260 259 259 260 260 259 258 258 255 253 251 249 248 248 248 249 250 250 250 251 251 252 252 253 254 255 255 255 256 257 256 256 257 258 260 261 262 262 262
264 262 260 259 259 259 258 258 258 258 259 258 257 258 252 251 249 248 247 247 248 249 249 249 250 251 252 252 253 254 254 256 257 258 258 258 258 258 259 261 262 263 262 262
264 261 259 258 257 257 258 257 257 257 258 258 256 257 253 251 249 249 248 248 248 247 248 249 249 251 250 250 252 253 254 256 257 258 257 258 259 260 260 261 263 263 262 262
262 260 259 259 257 257 257 257 257 257 257 257 256 257 255 251 249 249 249 250 249 247 247 248 249 249 249 250 252 253 254 255 256 257 257 259 260 260 261 262 263 264 263 263
260 258 258 257 255 255 256 256 257 256 256 258 257 258 257 253 251 250 249 250 251 249 247 247 248 248 248 250 252 253 254 255 256 256 257 259 260 261 262 263 263 263 263 262
262 257 256 255 255 254 254 254 255 257 259 259 258 258 259 257 253 251 249 250 251 250 248 247 247 248 248 249 252 253 254 254 255 257 258 259 262 263 264 263 263 263 262 261
262 257 254 255 255 255 253 253 254 257 258 259 258 258 258 257 255 253 251 250 250 248 247 246 247 248 250 251 252 253 254 255 257 258 259 260 262 263 264 264 263 263 261 262
260 259 254 255 255 254 255 254 253 254 256 256 257 257 258 256 256 254 251 251 250 247 246 247 248 250 252 254 253 254 254 254 256 258 259 260 262 263 264 265 263 262 261 261
262 260 257 256 255 254 252 252 253 254 254 255 256 256 256 256 255 254 253 252 251 248 247 248 249 251 252 253 253 254 254 255 257 258 259 261 261 263 263 262 262 260 260 260
262 259 257 258 256 254 252 251 252 254 254 254 254 255 255 255 254 253 252 251 250 248 247 247 247 248 249 251 252 254 254 256 257 258 259 261 261 262 260 260 260 258 260 263
263 262 260 259 258 254 252 252 253 254 254 254 253 253 252 253 252 251 250 249 248 247 246 246 245 245 247 250 251 253 255 257 258 258 259 261 260 259 259 259 258 259 260 262
263 263 260 261 260 258 253 252 252 253 253 253 251 251 249 251 250 250 249 248 247 246 245 246 247 247 248 249 250 251 253 255 257 258 258 260 258 256 257 259 259 258 259 262
265 264 261 260 259 258 256 252 251 253 254 253 251 251 249 249 247 246 247 247 246 245 244 245 246 247 248 248 250 251 253 254 255 257 258 257 256 256 257 259 259 259 261 262
268 267 264 261 259 259 257 255 252 251 251 251 249 249 249 249 247 246 247 247 246 246 245 245 246 246 246 248 249 251 252 253 254 256 257 257 257 257 258 260 260 261 262 263
269 267 266 264 262 260 258 256 253 250 247 248 247 247 248 247 247 246 246 245 245 246 247 246 247 248 248 248 248 250 251 253 254 255 256 258 257 257 258 259 259 261 262 264
268 265 265 264 261 262 260 256 253 251 248 247 247 246 246 245 244 243 244 245 246 247 248 248 248 248 247 247 248 249 250 252 254 255 255 256 256 257 257 258 259 261 263 265
266 263 263 262 260 261 257 254 253 252 249 247 246 245 246 245 244 244 244 245 247 248 249 248 248 248 248 248 249 250 251 252 254 255 255 255 257 258 258 259 260 262 263 265
263 258 259 258 255 256 256 255 253 253 252 248 248 246 245 246 246 245 244 246 248 250 250 250 250 250 249 249 250 251 251 253 256 257 258 258 259 259 260 260 261 262 263 266
258 252 252 254 255 256 257 255 253 254 253 253 251 250 248 247 247 245 245 245 247 248 249 250 251 251 251 251 251 251 253 255 256 258 259 260 260 261 262 262 263 264 265 266
254 251 252 253 255 256 257 256 254 255 254 254 253 251 249 248 248 247 247 247 247 248 249 250 252 253 253 253 252 253 256 257 257 258 259 260 260 262 263 264 265 266 267 266
252 252 254 255 257 259 257 256 255 255 254 253 254 254 251 249 249 247 248 248 248 249 251 252 252 253 253 253 253 254 255 256 257 258 260 262 263 264 265 266 266 267 267 268
252 251 253 254 256 257 258 257 255 256 258 256 255 254 251 250 250 251 251 250 249 250 251 252 252 252 253 254 254 255 255 256 256 259 260 262 263 265 266 267 267 269 268 269
254 252 253 256 258 259 259 258 258 259 260 258 255 254 252 252 253 253 252 250 250 251 252 252 253 253 254 254 255 256 257 257 258 260 261 262 263 264 266 267 267 267 268 269
253 253 254 255 257 260 259 256 259 262 261 258 255 255 255 254 254 254 253 252 253 253 252 253 254 255 255 256 257 258 259 259 260 261 262 263 264 265 266 267 267 267 267 269
Height
5667 5668 5669 5671 5670 5670 5671 5671 5673 5676 5676 5676 5678 5680 5684 5686 5688 5691 5694 5696 5699 5701 5703 5704 5705 5707 5709 5712 5714 5716 5718 5721 5723 5725 5728 5730 5732 5734 5735 5737 5738 5739 5740 5741
5656 5657 5660 5659 5659 5659 5660 5661 5663 5665 5665 5665 5667 5670 5673 5675 5678 5682 5684 5687 5689 5692 5694 5696 5698 5699 5702 5704 5705 5708 5710 5712 5715 5717 5719 5721 5723 5725 5726 5727 5728 5729 5730 5731
5643 5647 5647 5647 5648 5648 5650 5651 5653 5654 5654 5655 5656 5659 5664 5667 5668 5671 5675 5677 5680 5683 5685 5688 5690 5692 5694 5696 5698 5700 5702 5704 5706 5708 5710 5712 5714 5715 5717 5718 5719 5719 5720 5720
5631 5634 5635 5635 5637 5638 5639 5642 5642 5643 5643 5644 5647 5647 5655 5657 5659 5663 5666 5668 5671 5674 5677 5679 5682 5684 5686 5688 5690 5692 5694 5695 5697 5699 5701 5703 5705 5706 5707 5708 5709 5710 5710 5711
5620 5622 5622 5624 5627 5627 5629 5630 5631 5632 5632 5634 5636 5637 5644 5647 5651 5654 5657 5659 5662 5665 5668 5671 5673 5676 5678 5679 5681 5683 5685 5687 5689 5690 5692 5694 5695 5696 5697 5699 5699 5700 5700 5701
5608 5610 5611 5613 5615 5616 5617 5619 5620 5621 5621 5623 5628 5628 5632 5638 5642 5645 5648 5650 5652 5655 5659 5661 5664 5666 5668 5670 5672 5674 5676 5678 5680 5681 5683 5684 5686 5687 5688 5689 5690 5690 5691 5691
5597 5599 5600 5602 5603 5605 5607 5609 5610 5610 5610 5614 5619 5619 5624 5630 5633 5636 5639 5641 5643 5646 5649 5652 5655 5657 5659 5662 5664 5666 5667 5669 5671 5672 5674 5675 5677 5678 5679 5680 5680 5681 5681 5682
5585 5588 5590 5591 5593 5595 5597 5599 5601 5602 5603 5605 5608 5610 5617 5620 5623 5626 5629 5632 5634 5637 5640 5643 5646 5648 5650 5653 5655 5657 5658 5660 5661 5663 5665 5666 5667 5668 5669 5670 5671 5671 5671 5672
5574 5578 5581 5582 5584 5586 5587 5589 5592 5593 5593 5595 5597 5602 5607 5611 5613 5616 5619 5622 5625 5628 5631 5633 5636 5639 5641 5643 5645 5647 5649 5650 5652 5654 5655 5656 5658 5659 5659 5660 5661 5661 5662 5663
5564 5568 5572 5573 5575 5577 5579 5581 5582 5583 5584 5585 5589 5593 5598 5602 5604 5607 5610 5613 5616 5619 5621 5624 5627 5629 5632 5634 5636 5637 5639 5641 5643 5644 5646 5647 5648 5649 5649 5650 5651 5652 5652 5653
5556 5559 5562 5564 5566 5568 5571 5572 5573 5574 5576 5578 5580 5587 5589 5593 5596 5599 5601 5604 5607 5609 5612 5615 5618 5620 5622 5625 5626 5628 5630 5631 5633 5635 5636 5637 5638 5639 5640 5640 5641 5642 5643 5644
5549 5550 5552 5556 5557 5559 5561 5563 5565 5567 5568 5569 5572 5579 5581 5584 5586 5589 5591 5594 5597 5600 5603 5606 5609 5611 5614 5615 5617 5619 5620 5622 5624 5625 5626 5627 5628 5629 5630 5631 5632 5633 5634 5635
5540 5542 5544 5547 5551 5551 5552 5555 5556 5558 5559 5561 5564 5571 5573 5575 5577 5579 5582 5585 5588 5591 5594 5597 5600 5602 5604 5607 5608 5610 5612 5613 5614 5615 5616 5617 5618 5619 5621 5622 5623 5624 5625 5626
5532 5534 5537 5539 5540 5541 5543 5546 5548 5549 5551 5553 5556 5561 5565 5566 5568 5571 5573 5576 5580 5583 5586 5588 5591 5593 5596 5598 5599 5601 5603 5604 5605 5606 5607 5609 5609 5610 5612 5613 5614 5615 5616 5617
5523 5526 5528 5529 5531 5532 5534 5537 5539 5541 5543 5545 5549 5551 5555 5557 5560 5563 5565 5568 5571 5574 5577 5579 5582 5585 5587 5589 5591 5592 5594 5596 5597 5598 5599 5600 5601 5602 5603 5604 5605 5606 5607 5608
5516 5517 5519 5521 5523 5524 5525 5528 5530 5532 5535 5537 5539 5543 5546 5548 5551 5554 5557 5560 5563 5565 5568 5570 5573 5576 5578 5581 5582 5584 5585 5587 5588 5589 5591 5592 5592 5593 5594 5595 5596 5597 5598 5599
5508 5509 5511 5513 5514 5514 5517 5521 5522 5524 5526 5529 5531 5535 5537 5539 5542 5545 5548 5551 5554 5557 5559 5562 5564 5567 5569 5572 5574 5575 5577 5578 5580 5581 5582 5583 5584 5585 5586 5587 5588 5589 5590 5590
5501 5502 5503 5504 5506 5507 5513 5512 5514 5515 5518 5520 5523 5526 5528 5531 5534 5537 5540 5543 5546 5548 5551 5553 5556 5558 5561 5563 5565 5566 5568 5570 5571 5572 5573 5574 5575 5576 5577 5579 5580 5580 5581 5581
5494 5495 5496 5497 5498 5499 5504 5505 5506 5507 5510 5513 5515 5517 5520 5522 5526 5529 5532 5534 5537 5540 5542 5545 5547 5549 5552 5554 5556 5558 5559 5561 5562 5564 5565 5566 5567 5568 5569 5570 5571 5571 5572 5573
5489 5489 5491 5491 5492 5493 5498 5499 5499 5501 5503 5506 5507 5509 5512 5514 5518 5522 5524 5526 5529 5531 5534 5536 5539 5541 5543 5545 5547 5549 5551 5552 5553 5555 5556 5557 5558 5559 5560 5561 5562 5562 5563 5563
5484 5484 5486 5486 5487 5488 5492 5493 5495 5497 5498 5499 5500 5502 5504 5506 5510 5512 5514 5517 5520 5522 5525 5527 5530 5532 5534 5536 5538 5540 5542 5543 5544 5546 5547 5548 5550 5550 5551 5552 5552 5553 5553 5554
5479 5480 5481 5482 5482 5487 5487 5488 5490 5490 5491 5492 5493 5495 5497 5499 5502 5504 5506 5509 5511 5513 5516 5519 5521 5523 5525 5527 5529 5531 5533 5534 5535 5537 5538 5539 5540 5541 5542 5542 5542 5543 5543 5543
5475 5476 5477 5478 5480 5481 5481 5482 5483 5484 5485 5486 5487 5488 5490 5492 5494 5497 5499 5501 5503 5505 5507 5510 5512 5514 5516 5518 5520 5522 5524 5525 5527 5528 5529 5530 5531 5532 5532 5533 5533 5533 5533 5533
5470 5471 5472 5472 5474 5475 5476 5477 5478 5479 5479 5480 5481 5482 5484 5485 5487 5489 5491 5493 5495 5497 5499 5501 5503 5505 5507 5509 5511 5513 5515 5516 5518 5519 5520 5521 5522 5523 5523 5523 5524 5524 5524 5524
5465 5465 5466 5467 5469 5470 5472 5472 5473 5473 5474 5474 5475 5476 5477 5479 5481 5482 5484 5486 5487 5489 5491 5493 5495 5497 5499 5501 5502 5504 5506 5507 5509 5510 5511 5512 5513 5514 5514 5514 5514 5514 5514 5514
5460 5460 5461 5462 5464 5465 5466 5467 5467 5468 5468 5469 5470 5471 5472 5473 5474 5475 5477 5478 5480 5481 5483 5485 5487 5489 5491 5492 5494 5495 5497 5498 5499 5501 5502 5503 5503 5504 5504 5505 5505 5504 5505 5505